This is the latest recevied weather packets stored in our database for station/object VK4NB-13. If no packets are shown the sender has not sent any weather packets the latest 10 day(s).
| Time | Temp. | Humidity | Pressure | Rain* | Wind** | Luminosity | Snow |
|---|---|---|---|---|---|---|---|
| 1777564503 | 21.67° C | 88% | 1019.9 hPa | 0 mm | - | - | - |
| 1777563903 | 21.67° C | 88% | 1019.9 hPa | 0 mm | - | - | - |
| 1777563002 | 21.67° C | 88% | 1020.2 hPa | 0 mm | - | - | - |
| 1777562702 | 22.22° C | 87% | 1020.2 hPa | 0 mm | - | - | - |
| 1777561802 | 22.22° C | 88% | 1020.3 hPa | 0 mm | - | - | - |
| 1777553124 | 22.78° C | 86% | 1021.3 hPa | 0 mm | - | - | - |
| 1777550423 | 22.78° C | 86% | 1021.5 hPa | 0 mm | - | - | - |
| 1777550103 | 22.78° C | 85% | 1021.4 hPa | 0 mm | - | - | - |
| 1777547724 | 22.78° C | 85% | 1021.6 hPa | 0 mm | - | - | - |
| 1777545602 | 22.78° C | 85% | 1021.6 hPa | 0 mm | - | - | - |
| 1777543803 | 22.78° C | 84% | 1021.7 hPa | 0 mm | - | - | - |
| 1777541103 | 23.33° C | 85% | 1020.8 hPa | 0 mm | - | - | - |
| 1777540803 | 23.33° C | 85% | 1020.6 hPa | 0 mm | - | - | - |
| 1777540503 | 23.33° C | 85% | 1020.8 hPa | 0 mm | - | - | - |
| 1777540203 | 23.33° C | 85% | 1020.7 hPa | 0 mm | - | - | - |
| 1777539304 | 23.33° C | 85% | 1020.5 hPa | 0 mm | - | - | - |
| 1777538403 | 23.33° C | 85% | 1020.3 hPa | 0 mm | - | - | - |
| 1777537203 | 23.33° C | 85% | 1020 hPa | 0 mm | - | - | - |
| 1777535704 | 23.33° C | 85% | 1020.1 hPa | 0 mm | - | - | - |
| 1777535403 | 23.33° C | 84% | 1019.8 hPa | 0 mm | - | - | - |
| 1777530303 | 24.44° C | 82% | 1019.2 hPa | 0 mm | - | - | - |
| 1777522803 | 25° C | 81% | 1019 hPa | 0 mm | - | - | - |
| 1777521903 | 25.56° C | 81% | 1018.8 hPa | 0 mm | - | - | - |
| 1777521004 | 25.56° C | 80% | 1019.1 hPa | 0 mm | - | - | - |
| 1777520103 | 25° C | 83% | 1019.3 hPa | 0 mm | - | - | - |
* Rain latest hour (hover to see other rain measurements)
** Current wind speed in m/s (hover to see current wind gust speed)